This demonstration page uses our WeatherBlox Daily Observations layout. Learn more.

Hourly Observations for February 6, 2020

Temp ( °F °C ) Dew Point ( °F °C ) Humidity (%) Winds ( mph kmh ) Pressure ( in mb ) Visibility ( mi km ) Precip ( " mm )
12:54 am 00:54 Clear 16 -8.9 12 -11.1 84 84 Calm 29.88 1012 10 16.0934 0 0
1:54 am 01:54 Clear 17 -8.3 15 -9.4 92 92 Calm 29.86 1011 10 16.0934 0 0
2:54 am 02:54 Clear 14 -10 9 -12.8 80 80 Calm 29.83 1010 10 16.0934 0 0
3:54 am 03:54 Clear 14 -10 9 -12.8 80 80 SSE 3 6 29.79 1009 10 16.0934 0 0
4:54 am 04:54 Clear 14 -10 11 -11.7 88 88 Calm 29.76 1008 10 16.0934 0 0
5:54 am 05:54 Clear 12 -11.1 7 -13.9 80 80 S 3 6 29.77 1008 10 16.0934 0 0
6:54 am 06:54 Clear 14 -10 10 -12.2 84 84 SSE 6 9 29.78 1009 9 14.48406 0 0
7:54 am 07:54 Sunny 13 -10.6 11 -11.7 92 92 SSE 6 9 29.78 1009 10 16.0934 0 0
8:54 am 08:54 Sunny 21 -6.1 17 -8.3 85 85 S 7 11 29.77 1008 10 16.0934 0 0
9:54 am 09:54 Sunny 28 -2.2 24 -4.4 85 85 S 8 13 29.75 1007 10 16.0934 0 0
10:54 am 10:54 Sunny 31 -0.6 22 -5.6 69 69 SSW 16 26 29.73 1007 10 16.0934 0 0
11:54 am 11:54 Sunny 34 1.1 23 -5 64 64 SSW 13 20 29.7 1006 10 16.0934 0 0
12:54 pm 12:54 Sunny 37 2.8 22 -5.6 54 54 SW 10 17 29.66 1004 10 16.0934 0 0
1:54 pm 13:54 Sunny 39 3.9 22 -5.6 50 50 S 9 15 29.62 1003 10 16.0934 0 0
2:54 pm 14:54 Sunny 39 3.9 21 -6.1 48 48 WSW 7 11 29.6 1003 10 16.0934 0 0
3:54 pm 15:54 Mostly Cloudy 39 3.9 22 -5.6 50 50 WSW 6 9 29.6 1003 10 16.0934 0 0
4:54 pm 16:54 Cloudy 39 3.9 22 -5.6 50 50 W 5 7 29.61 1003 10 16.0934 0 0
5:54 pm 17:54 Mostly Cloudy 35 1.7 21 -6.1 57 57 S 3 6 29.62 1003 10 16.0934 0 0
6:54 pm 18:54 Clear 31 -0.6 24 -4.4 76 76 Calm 29.63 1003 10 16.0934 0 0
7:54 pm 19:54 Mostly Clear 29 -1.7 22 -5.6 75 75 SSE 5 7 29.63 1004 10 16.0934 0 0
8:54 pm 20:54 Partly Cloudy 30 -1.1 23 -5 75 75 SSE 5 7 29.63 1004 10 16.0934 0 0
9:54 pm 21:54 Cloudy 29 -1.7 23 -5 78 78 S 7 11 29.63 1003 10 16.0934 0 0
10:54 pm 22:54 Cloudy 30 -1.1 24 -4.4 79 79 Calm 29.64 1004 10 16.0934 0 0
11:54 pm 23:54 Cloudy with Light Snow 34 1.1 27 -2.8 76 76 NW 10 17 29.65 1004 4 6.43736 0.001 0.001

Powered by AerisWeather